"Pseudo-MPEC" for C0QEGG5

Created 2024 Feb 18 15:22:03 UT using Find_Orb

Click here for an explanation of pseudo-MPECs

 
 Astrometry: 
     C0QEGG5* C2024 01 19.33057407 44 13.366+32 05 02.18   ~1J8q 23.02GVNEOCPV00
     C0QEGG5  C2024 01 19.33668407 44 12.822+32 05 04.20   ~1J8q       VNEOCPV00
     C0QEGG5  C2024 01 19.34279407 44 12.293+32 05 06.00   ~1J8q       VNEOCPV00
     C0QEGG5  C2024 01 19.34890707 44 11.713+32 05 08.66   ~1J8q 22.55GVNEOCPV00
     C0QEGG5 mC2024 01 20.41823007 42 37.650+32 11 10.50   ~1KAb 22.98GVNEOCPV00
     C0QEGG5 mC2024 01 20.42015107 42 37.500+32 11 10.80   ~1KAb 23.18GVNEOCPV00
     C0QEGG5 mC2024 01 20.42206807 42 37.300+32 11 11.90   ~1KAb       VNEOCPV00
     C0QEGG5 mC2024 01 20.42404107 42 37.160+32 11 12.40   ~1KAb       VNEOCPV00

Station data:
(V00) Kitt Peak-Bok  (N31.963125 W111.600190)  US/Arizona.  Observers T. A.
   Pruyne, B. M. Africano, E. J. Christensen, G. A. Farneth, D. C. Fuls, A.
   R. Gibbs, A. D. Grauer, H. Gröller, J. A. Johnson, R. A. Kowalski, S. M.
   Larson, G. J. Leonard, D. Rankin, R. L. Seaman, F. C. Shelly, K. W.
   Wierzchoś. 2.25-m reflector + 4x4K mosaic CCD.

Orbital elements:  C0QEGG5
   Perihelion 2024 Jul 31.23462 +/- 354 TT =  5:37:51 (JD 2460522.73462)
Epoch 2024 Jan 20.0 TT = JDT 2460329.5   Earth MOID: 0.1922   Ju: 0.4240
M 355.84812192 +/- 70               Ve: 0.0591   Sa: 0.5284   Ur: 0.2373
n   0.02148620 +/- 0.0748           Peri.  166.76000 +/- 60      AutoNEOCP
a  12.8143410 +/- 29.8              Node    78.10225 +/- 32
e   0.9524077 +/- 0.257             Incl.   12.18926 +/- 57
P  45.87                   H 18.80  G  0.15   U 11.0  SR
q 0.60986310 +/- 1.14    Q 25.0188189 +/- 29.9            (J2000 ecliptic)
From 8 observations 2024 Jan. 19-20 (26.2 hr); mean residual 0".18
Residuals in arcseconds: 
240119 V00  .00   .04+    240119 V00  .23-  .29+    240120 V00  .23-  .19+    
240119 V00  .01+  .02-    240120 V00  .15-  .05+    240120 V00  .24+  .04+    
240119 V00  .21+  .30-    240120 V00  .13+  .28-    

Ephemerides (geocentric):
Date (UTC) HH   RA             Dec           delta  r     elong  mag " sig PA
---- --------  ------------   ------------  ------ ------ -----  --- --------
2024 02 18 15  07 00 01.490   +33 50 37.20  1.9457 2.7134 132.5 23.3 5582  73
2024 02 18 16  06 59 58.377   +33 50 39.75  1.9457 2.7129 132.5 23.3 5596  73
2024 02 18 17  06 59 55.267   +33 50 42.29  1.9456 2.7124 132.4 23.3 5610  73
2024 02 18 18  06 59 52.159   +33 50 44.81  1.9456 2.7119 132.4 23.3 5624  73
2024 02 18 19  06 59 49.055   +33 50 47.32  1.9455 2.7114 132.3 23.3 5637  73
2024 02 18 20  06 59 45.953   +33 50 49.81  1.9455 2.7109 132.3 23.3 5651  73
2024 02 18 21  06 59 42.854   +33 50 52.29  1.9454 2.7104 132.2 23.3 5665  73
2024 02 18 22  06 59 39.758   +33 50 54.75  1.9454 2.7099 132.2 23.3 5679  73
2024 02 18 23  06 59 36.664   +33 50 57.20  1.9453 2.7094 132.1 23.3 5693  73
2024 02 19 00  06 59 33.574   +33 50 59.62  1.9453 2.7089 132.1 23.3 5707  73
2024 02 19 01  06 59 30.486   +33 51 02.04  1.9452 2.7084 132.0 23.3 5721  73
2024 02 19 02  06 59 27.401   +33 51 04.44  1.9452 2.7078 132.0 23.3 5735  73
2024 02 19 03  06 59 24.319   +33 51 06.82  1.9452 2.7073 131.9 23.3 5748  73
2024 02 19 04  06 59 21.240   +33 51 09.19  1.9451 2.7068 131.9 23.3 5762  73
2024 02 19 05  06 59 18.164   +33 51 11.54  1.9451 2.7063 131.8 23.3 5776  73
2024 02 19 06  06 59 15.091   +33 51 13.87  1.9450 2.7058 131.8 23.3 5790  73
2024 02 19 07  06 59 12.020   +33 51 16.19  1.9450 2.7053 131.7 23.3 5804  73
2024 02 19 08  06 59 08.953   +33 51 18.50  1.9449 2.7048 131.7 23.3 5818  73
2024 02 19 09  06 59 05.888   +33 51 20.79  1.9449 2.7043 131.6 23.3 5832  73
2024 02 19 10  06 59 02.826   +33 51 23.06  1.9449 2.7038 131.6 23.3 5846  73
2024 02 19 11  06 58 59.767   +33 51 25.32  1.9448 2.7033 131.5 23.3 5860  73
2024 02 19 12  06 58 56.711   +33 51 27.56  1.9448 2.7028 131.5 23.3 5874  73
2024 02 19 13  06 58 53.658   +33 51 29.79  1.9447 2.7023 131.4 23.3 5888  73
2024 02 19 14  06 58 50.608   +33 51 32.00  1.9447 2.7018 131.4 23.3 5902  73
2024 02 19 15  06 58 47.561   +33 51 34.20  1.9446 2.7013 131.3 23.3 5916  73
2024 02 19 16  06 58 44.516   +33 51 36.38  1.9446 2.7008 131.3 23.3 5930  73
2024 02 19 17  06 58 41.475   +33 51 38.55  1.9446 2.7003 131.2 23.3 5944  73
2024 02 19 18  06 58 38.436   +33 51 40.70  1.9445 2.6997 131.2 23.3 5958  73
2024 02 19 19  06 58 35.401   +33 51 42.83  1.9445 2.6992 131.1 23.3 5973  73
2024 02 19 20  06 58 32.368   +33 51 44.95  1.9445 2.6987 131.1 23.3 5987  73
2024 02 19 21  06 58 29.338   +33 51 47.06  1.9444 2.6982 131.0 23.3 6001  73
2024 02 19 22  06 58 26.311   +33 51 49.14  1.9444 2.6977 131.0 23.3 6015  73
2024 02 19 23  06 58 23.287   +33 51 51.22  1.9443 2.6972 130.9 23.3 6029  73
2024 02 20 00  06 58 20.266   +33 51 53.28  1.9443 2.6967 130.9 23.3 6043  73
2024 02 20 01  06 58 17.248   +33 51 55.32  1.9443 2.6962 130.8 23.3 6057  73
2024 02 20 02  06 58 14.233   +33 51 57.35  1.9442 2.6957 130.8 23.3 6072  73
2024 02 20 03  06 58 11.221   +33 51 59.36  1.9442 2.6952 130.7 23.3 6086  73
2024 02 20 04  06 58 08.212   +33 52 01.36  1.9442 2.6947 130.7 23.3 6100  73
2024 02 20 05  06 58 05.206   +33 52 03.34  1.9441 2.6942 130.6 23.3 6114  73
2024 02 20 06  06 58 02.203   +33 52 05.31  1.9441 2.6937 130.6 23.3 6128  73
2024 02 20 07  06 57 59.202   +33 52 07.26  1.9440 2.6932 130.5 23.3 6143  73
2024 02 20 08  06 57 56.205   +33 52 09.20  1.9440 2.6927 130.5 23.3 6157  73
2024 02 20 09  06 57 53.211   +33 52 11.12  1.9440 2.6921 130.4 23.3 6171  73
2024 02 20 10  06 57 50.219   +33 52 13.02  1.9439 2.6916 130.3 23.3 6185  73
2024 02 20 11  06 57 47.231   +33 52 14.92  1.9439 2.6911 130.3 23.3 6200  73
2024 02 20 12  06 57 44.246   +33 52 16.79  1.9439 2.6906 130.2 23.3 6214  73
2024 02 20 13  06 57 41.263   +33 52 18.65  1.9438 2.6901 130.2 23.3 6228  73
2024 02 20 14  06 57 38.284   +33 52 20.50  1.9438 2.6896 130.1 23.3 6242  73